QPF
0.00 0.00 0.00 0.00 0.00 0.00 0.00 0.00 0.00 0.00 0.00 0.00 0.00 0.00 0.00 0.00 0.00 0.00 0.00 0.00 0.00 0.00 0.00 0.00 0.00 0.00 0.00 0.00 0.00 0.00 0.00 0.00 0.00 0.00 0.01 0.00 0.00 0.00 0.00 0.00 0.00 0.00 0.00 0.00
0.00 0.00 0.00 0.00 0.00 0.00 0.00 0.00 0.00 0.00 0.00 0.00 0.00 0.00 0.00 0.00 0.00 0.00 0.00 0.00 0.00 0.00 0.00 0.00 0.00 0.00 0.00 0.00 0.00 0.00 0.00 0.00 0.00 0.00 0.01 0.02 0.00 0.00 0.00 0.00 0.00 0.00 0.00 0.00
0.00 0.00 0.00 0.00 0.00 0.00 0.00 0.00 0.00 0.00 0.00 0.00 0.00 0.00 0.00 0.00 0.00 0.00 0.00 0.00 0.00 0.00 0.00 0.00 0.00 0.00 0.00 0.00 0.00 0.00 0.00 0.00 0.00 0.00 0.00 0.00 0.00 0.00 0.00 0.00 0.00 0.00 0.00 0.00
0.00 0.00 0.00 0.00 0.00 0.00 0.00 0.00 0.00 0.00 0.00 0.00 0.00 0.00 0.00 0.00 0.00 0.00 0.00 0.00 0.00 0.00 0.00 0.00 0.00 0.00 0.00 0.00 0.00 0.00 0.00 0.00 0.00 0.00 0.00 0.00 0.00 0.00 0.00 0.00 0.00 0.00 0.00 0.00
0.00 0.00 0.00 0.00 0.00 0.00 0.00 0.00 0.00 0.00 0.00 0.00 0.00 0.00 0.00 0.00 0.00 0.00 0.00 0.00 0.00 0.00 0.00 0.00 0.00 0.00 0.00 0.00 0.00 0.00 0.00 0.00 0.00 0.00 0.00 0.00 0.00 0.00 0.00 0.00 0.00 0.00 0.00 0.00
0.00 0.00 0.00 0.00 0.00 0.00 0.00 0.00 0.00 0.00 0.00 0.00 0.00 0.00 0.00 0.00 0.00 0.00 0.00 0.00 0.00 0.00 0.00 0.00 0.00 0.00 0.00 0.00 0.00 0.00 0.00 0.00 0.00 0.00 0.00 0.00 0.00 0.00 0.00 0.00 0.00 0.00 0.00 0.00
0.00 0.00 0.00 0.00 0.00 0.00 0.00 0.00 0.00 0.00 0.00 0.00 0.00 0.00 0.00 0.00 0.00 0.00 0.00 0.00 0.00 0.00 0.00 0.00 0.00 0.00 0.00 0.00 0.00 0.01 0.00 0.00 0.00 0.00 0.00 0.00 0.00 0.00 0.00 0.00 0.00 0.00 0.00 0.00
0.00 0.00 0.00 0.00 0.00 0.00 0.00 0.00 0.00 0.00 0.00 0.00 0.00 0.00 0.00 0.00 0.00 0.00 0.00 0.00 0.00 0.00 0.00 0.00 0.00 0.00 0.00 0.00 0.00 0.00 0.00 0.00 0.00 0.00 0.00 0.00 0.00 0.00 0.00 0.00 0.00 0.00 0.00 0.00
0.00 0.00 0.00 0.00 0.00 0.00 0.00 0.00 0.00 0.00 0.00 0.00 0.00 0.00 0.00 0.00 0.00 0.00 0.00 0.00 0.00 0.00 0.00 0.00 0.00 0.00 0.00 0.00 0.00 0.01 0.03 0.00 0.00 0.00 0.00 0.00 0.00 0.00 0.00 0.00 0.00 0.00 0.00 0.00
0.00 0.00 0.00 0.00 0.00 0.00 0.00 0.00 0.00 0.00 0.00 0.00 0.00 0.00 0.00 0.00 0.00 0.00 0.00 0.00 0.00 0.00 0.00 0.00 0.00 0.00 0.00 0.00 0.00 0.01 0.04 0.01 0.00 0.00 0.00 0.00 0.00 0.00 0.00 0.00 0.00 0.01 0.00 0.00
0.00 0.00 0.00 0.00 0.00 0.00 0.00 0.00 0.00 0.00 0.00 0.00 0.00 0.00 0.00 0.00 0.00 0.00 0.00 0.00 0.00 0.00 0.00 0.00 0.00 0.00 0.00 0.00 0.00 0.00 0.02 0.01 0.00 0.00 0.00 0.00 0.00 0.00 0.00 0.00 0.01 0.00 0.00 0.00
0.00 0.00 0.00 0.00 0.00 0.00 0.00 0.00 0.00 0.00 0.00 0.00 0.00 0.00 0.00 0.00 0.00 0.00 0.00 0.00 0.00 0.00 0.00 0.00 0.00 0.00 0.00 0.00 0.00 0.00 0.01 0.00 0.01 0.00 0.00 0.00 0.00 0.00 0.00 0.00 0.00 0.00 0.00 0.01
0.00 0.00 0.00 0.00 0.00 0.00 0.00 0.00 0.00 0.00 0.00 0.00 0.00 0.00 0.00 0.00 0.00 0.00 0.00 0.00 0.00 0.00 0.00 0.00 0.00 0.00 0.00 0.00 0.00 0.00 0.00 0.00 0.01 0.00 0.00 0.00 0.00 0.00 0.00 0.00 0.00 0.00 0.00 0.01
0.00 0.00 0.00 0.00 0.00 0.00 0.00 0.00 0.00 0.00 0.00 0.00 0.00 0.00 0.00 0.00 0.00 0.00 0.00 0.00 0.00 0.00 0.00 0.00 0.00 0.00 0.00 0.00 0.00 0.00 0.00 0.00 0.01 0.06 0.01 0.00 0.00 0.00 0.00 0.00 0.00 0.00 0.00 0.02
0.00 0.00 0.00 0.00 0.00 0.00 0.00 0.00 0.00 0.00 0.00 0.00 0.00 0.00 0.00 0.00 0.00 0.00 0.00 0.00 0.00 0.00 0.00 0.00 0.00 0.00 0.00 0.00 0.00 0.00 0.00 0.00 0.00 0.03 0.01 0.00 0.00 0.00 0.00 0.00 0.00 0.00 0.00 0.02
0.00 0.00 0.00 0.00 0.00 0.00 0.00 0.00 0.00 0.00 0.00 0.00 0.00 0.00 0.00 0.00 0.00 0.00 0.00 0.00 0.00 0.00 0.00 0.00 0.00 0.00 0.00 0.00 0.00 0.00 0.00 0.00 0.00 0.00 0.00 0.00 0.00 0.00 0.00 0.00 0.00 0.00 0.05 0.14
0.00 0.00 0.00 0.00 0.00 0.00 0.00 0.00 0.00 0.00 0.00 0.00 0.00 0.00 0.00 0.00 0.00 0.00 0.00 0.00 0.00 0.00 0.00 0.00 0.00 0.00 0.00 0.00 0.00 0.00 0.00 0.00 0.00 0.00 0.00 0.00 0.00 0.00 0.00 0.05 0.15 0.15 0.14 0.31
0.00 0.00 0.00 0.00 0.00 0.00 0.00 0.00 0.00 0.00 0.00 0.00 0.00 0.00 0.00 0.00 0.00 0.00 0.00 0.00 0.00 0.00 0.00 0.00 0.00 0.00 0.00 0.00 0.00 0.00 0.00 0.00 0.00 0.02 0.01 0.00 0.00 0.00 0.06 0.12 0.17 0.13 0.11 0.33
0.00 0.00 0.00 0.00 0.00 0.00 0.00 0.00 0.00 0.00 0.00 0.00 0.00 0.00 0.00 0.00 0.00 0.00 0.00 0.00 0.00 0.00 0.00 0.00 0.00 0.00 0.00 0.00 0.00 0.00 0.00 0.00 0.01 0.00 0.00 0.01 0.00 0.00 0.04 0.10 0.12 0.05 0.07 0.14
0.00 0.00 0.00 0.00 0.00 0.00 0.00 0.00 0.00 0.00 0.00 0.00 0.00 0.00 0.00 0.00 0.00 0.00 0.00 0.00 0.00 0.00 0.00 0.00 0.00 0.00 0.00 0.00 0.00 0.00 0.00 0.00 0.00 0.00 0.00 0.00 0.00 0.06 0.03 0.21 0.14 0.10 0.09 0.06
0.00 0.00 0.00 0.00 0.00 0.00 0.00 0.00 0.00 0.00 0.00 0.00 0.00 0.00 0.00 0.00 0.00 0.00 0.00 0.00 0.00 0.00 0.00 0.00 0.00 0.00 0.00 0.00 0.00 0.00 0.00 0.00 0.00 0.00 0.00 0.00 0.02 0.12 0.07 0.10 0.07 0.05 0.04 0.04
0.00 0.00 0.00 0.00 0.00 0.00 0.00 0.00 0.00 0.00 0.00 0.00 0.00 0.00 0.00 0.00 0.00 0.00 0.00 0.01 0.01 0.00 0.00 0.00 0.00 0.00 0.00 0.00 0.00 0.00 0.00 0.00 0.00 0.00 0.00 0.02 0.07 0.06 0.02 0.01 0.05 0.05 0.02 0.02
0.00 0.00 0.00 0.00 0.00 0.00 0.00 0.00 0.00 0.00 0.00 0.00 0.00 0.00 0.00 0.00 0.00 0.00 0.00 0.00 0.01 0.02 0.01 0.00 0.00 0.00 0.00 0.00 0.01 0.00 0.00 0.00 0.00 0.00 0.00 0.01 0.02 0.00 0.00 0.01 0.03 0.01 0.00 0.00
0.00 0.00 0.00 0.00 0.00 0.00 0.00 0.00 0.00 0.00 0.00 0.00 0.00 0.00 0.00 0.00 0.00 0.00 0.00 0.00 0.01 0.03 0.02 0.01 0.00 0.01 0.00 0.00 0.01 0.00 0.00 0.00 0.00 0.00 0.00 0.01 0.00 0.01 0.01 0.01 0.00 0.00 0.00 0.00
0.00 0.00 0.00 0.00 0.00 0.00 0.00 0.00 0.00 0.01 0.03 0.02 0.00 0.00 0.00 0.00 0.00 0.00 0.00 0.00 0.00 0.01 0.02 0.04 0.04 0.03 0.01 0.01 0.00 0.02 0.02 0.00 0.01 0.02 0.00 0.01 0.03 0.03 0.02 0.01 0.00 0.00 0.00 0.00
0.00 0.00 0.00 0.00 0.00 0.00 0.00 0.00 0.00 0.01 0.03 0.02 0.00 0.00 0.00 0.00 0.00 0.00 0.00 0.00 0.00 0.00 0.00 0.03 0.08 0.08 0.13 0.15 0.10 0.12 0.04 0.00 0.01 0.05 0.03 0.02 0.01 0.00 0.00 0.00 0.00 0.00 0.00 0.00
MSLP
1009.74 1010.47 1010.88 1010.85 1011.15 1011.04 1011.10 1010.99 1010.61 1008.80 1008.58 1008.98 1008.64 1008.62 1007.61 1008.67 1008.97 1008.97 1009.29 1009.51 1009.73 1009.62 1009.23 1009.74 1010.24 1010.86 1011.55 1012.34 1012.92 1013.40 1013.94 1014.41 1014.87 1015.39 1015.77 1016.02 1016.27 1016.49 1016.63 1016.51 1016.68 1016.86 1017.05 1017.31
1010.30 1010.39 1009.97 1010.30 1010.44 1010.65 1010.75 1010.65 1009.80 1008.64 1008.15 1008.68 1008.41 1008.23 1007.72 1007.92 1007.85 1007.96 1008.28 1008.84 1008.90 1009.33 1009.37 1009.59 1010.02 1010.74 1011.19 1011.85 1012.63 1013.32 1013.89 1014.31 1014.68 1015.01 1015.40 1015.69 1015.98 1016.27 1016.21 1016.29 1016.54 1016.79 1017.02 1017.27
1010.35 1009.57 1009.31 1009.75 1009.90 1010.16 1010.18 1010.14 1009.56 1009.49 1008.55 1008.47 1008.63 1008.37 1007.54 1007.16 1007.27 1007.31 1007.36 1007.71 1008.09 1008.46 1008.90 1009.37 1009.74 1010.23 1010.87 1011.60 1012.22 1013.01 1013.69 1014.15 1014.60 1014.88 1015.29 1015.66 1015.90 1016.19 1016.44 1016.50 1016.57 1016.62 1016.96 1017.15
1009.98 1008.96 1009.00 1009.11 1009.39 1009.57 1009.43 1008.86 1009.15 1009.10 1009.35 1009.26 1009.04 1008.89 1007.73 1007.23 1007.11 1007.12 1007.04 1007.32 1007.57 1007.98 1008.31 1008.69 1009.21 1009.98 1010.27 1011.05 1011.83 1012.60 1013.33 1014.07 1014.51 1014.73 1015.04 1015.36 1015.57 1015.99 1016.21 1016.30 1016.40 1016.51 1016.65 1016.97
1009.02 1008.58 1008.62 1008.65 1008.35 1008.69 1008.76 1008.37 1009.02 1009.16 1009.56 1009.81 1009.77 1009.80 1007.41 1007.30 1006.70 1006.23 1006.13 1006.45 1006.87 1007.06 1007.58 1008.07 1008.50 1009.07 1009.90 1010.78 1011.56 1012.21 1013.10 1013.98 1014.30 1014.58 1014.78 1015.04 1015.55 1015.79 1015.93 1016.18 1016.38 1016.52 1016.64 1016.81
1008.83 1008.28 1008.06 1007.72 1007.53 1007.96 1008.18 1008.81 1009.39 1010.09 1010.39 1010.67 1010.02 1009.97 1007.35 1006.99 1005.85 1005.37 1005.23 1005.67 1006.14 1006.41 1007.02 1007.46 1008.12 1008.92 1009.54 1010.43 1011.33 1011.96 1012.96 1013.70 1014.09 1014.37 1014.70 1014.76 1015.31 1015.66 1016.03 1016.23 1016.29 1016.43 1016.59 1016.79
1009.09 1008.25 1007.45 1007.25 1007.71 1007.78 1008.48 1009.76 1010.48 1011.29 1011.73 1011.35 1010.07 1009.78 1007.41 1005.40 1004.92 1004.57 1004.60 1004.84 1005.27 1005.74 1006.57 1007.25 1008.03 1008.67 1009.35 1010.08 1011.04 1011.74 1012.47 1013.31 1013.89 1014.18 1014.42 1014.62 1014.90 1015.42 1015.62 1015.92 1016.13 1016.30 1016.57 1016.70
1009.57 1008.36 1007.25 1007.07 1007.26 1007.70 1008.35 1009.44 1010.77 1011.67 1012.48 1011.64 1010.29 1008.92 1006.06 1004.59 1003.96 1003.84 1003.93 1004.32 1005.07 1005.47 1005.72 1006.21 1007.00 1007.92 1008.87 1009.79 1010.42 1011.09 1011.76 1012.80 1013.43 1013.88 1014.09 1014.29 1014.63 1015.06 1015.29 1015.53 1015.87 1015.92 1016.25 1016.29
1009.75 1008.22 1007.08 1006.50 1006.55 1007.09 1007.95 1009.19 1009.73 1011.20 1012.37 1011.96 1010.30 1008.35 1005.74 1004.16 1003.61 1003.76 1004.35 1004.41 1004.48 1004.76 1005.11 1005.51 1006.18 1006.97 1008.11 1009.17 1009.58 1009.90 1011.06 1011.99 1012.85 1013.28 1013.74 1014.01 1014.40 1014.80 1015.01 1015.27 1015.63 1015.72 1015.74 1016.03
1009.62 1009.13 1007.41 1006.23 1006.29 1006.73 1007.28 1008.46 1009.94 1011.40 1012.40 1012.16 1010.68 1008.99 1006.75 1004.88 1004.12 1004.07 1004.24 1004.56 1004.51 1004.38 1004.83 1005.35 1005.89 1006.62 1007.54 1008.16 1008.88 1009.92 1010.68 1011.29 1011.99 1012.74 1013.20 1013.55 1014.00 1014.43 1014.66 1015.07 1015.41 1015.49 1015.41 1015.73
1009.93 1010.02 1008.64 1007.53 1007.09 1007.03 1007.83 1008.59 1010.14 1011.29 1011.85 1012.01 1011.04 1009.10 1006.40 1005.50 1004.76 1004.30 1004.00 1004.20 1004.54 1004.51 1004.53 1004.79 1005.14 1006.00 1007.05 1008.03 1008.63 1009.44 1010.33 1011.15 1011.58 1012.06 1012.61 1013.09 1013.55 1014.04 1014.46 1014.72 1015.08 1015.21 1015.32 1015.46
1010.56 1010.83 1010.29 1008.75 1007.65 1007.64 1007.83 1008.70 1009.82 1011.27 1012.06 1011.92 1010.78 1007.89 1005.97 1005.46 1004.78 1004.24 1003.59 1003.86 1003.81 1004.27 1004.58 1004.64 1005.02 1005.70 1006.44 1007.14 1008.05 1008.62 1009.62 1010.38 1010.76 1011.30 1012.10 1012.61 1013.16 1013.63 1014.21 1014.45 1014.77 1015.03 1015.20 1015.37
1011.08 1011.55 1011.39 1009.96 1009.05 1008.49 1008.98 1009.33 1009.86 1010.38 1011.03 1011.28 1010.53 1007.83 1005.80 1005.12 1004.45 1003.76 1003.75 1003.62 1004.14 1004.12 1004.41 1004.68 1004.99 1005.35 1005.90 1006.64 1007.35 1008.14 1008.96 1009.55 1010.23 1010.90 1011.72 1012.38 1012.86 1013.31 1013.82 1014.13 1014.45 1014.87 1015.01 1015.07
1011.68 1012.54 1012.44 1011.74 1010.86 1010.60 1010.15 1009.76 1009.68 1009.85 1010.68 1010.31 1009.66 1008.00 1006.58 1005.70 1005.21 1004.34 1003.69 1003.48 1003.56 1003.94 1004.20 1004.43 1004.84 1005.04 1005.42 1006.13 1006.99 1007.72 1008.39 1009.16 1010.00 1010.86 1011.60 1012.04 1012.32 1012.78 1013.35 1013.80 1014.18 1014.54 1014.74 1015.01
1012.56 1013.38 1013.06 1012.37 1011.78 1011.20 1010.55 1009.98 1009.75 1009.80 1009.64 1009.66 1008.64 1008.22 1006.70 1006.16 1005.55 1004.77 1004.12 1003.61 1003.31 1003.56 1003.82 1004.14 1004.37 1004.96 1005.18 1005.86 1006.49 1007.26 1008.07 1008.76 1009.18 1010.17 1010.82 1011.39 1011.87 1012.33 1012.90 1013.52 1013.79 1014.14 1014.58 1014.69
1013.49 1013.84 1013.70 1013.06 1012.29 1011.44 1010.56 1009.61 1009.30 1009.07 1008.75 1008.49 1008.24 1007.59 1006.52 1006.12 1005.60 1004.90 1004.51 1003.92 1003.48 1003.24 1003.18 1003.46 1004.00 1004.36 1004.99 1005.17 1005.61 1006.55 1007.46 1007.98 1008.69 1009.51 1010.11 1010.72 1011.30 1011.92 1012.40 1012.92 1013.39 1013.77 1014.03 1014.19
1014.27 1014.45 1014.90 1013.97 1012.87 1011.96 1010.85 1009.08 1008.44 1007.72 1007.26 1007.33 1007.78 1007.02 1006.94 1006.46 1006.13 1005.38 1005.02 1004.62 1004.01 1003.40 1003.14 1002.98 1003.30 1003.78 1004.35 1004.72 1005.26 1006.24 1006.58 1007.62 1008.40 1008.99 1009.92 1010.40 1010.57 1011.23 1011.80 1012.47 1013.15 1013.42 1013.47 1013.85
1014.65 1015.23 1015.28 1015.01 1013.88 1012.57 1009.94 1008.74 1008.18 1007.77 1007.50 1007.55 1007.60 1007.39 1007.51 1007.32 1006.43 1005.64 1005.82 1005.39 1004.54 1003.59 1002.73 1002.68 1002.47 1003.06 1003.67 1004.36 1005.38 1006.03 1006.45 1006.99 1007.95 1008.28 1009.19 1010.51 1010.74 1010.95 1011.24 1011.67 1012.41 1012.85 1013.06 1013.56
1014.78 1015.35 1015.84 1015.67 1014.83 1012.53 1010.54 1009.65 1009.58 1009.54 1008.63 1008.42 1008.50 1008.19 1007.92 1007.36 1006.31 1005.70 1005.97 1005.75 1005.03 1003.73 1002.61 1002.21 1002.41 1002.31 1003.09 1003.88 1004.59 1005.48 1006.18 1006.68 1007.38 1008.11 1008.78 1010.03 1010.82 1010.54 1011.05 1011.32 1011.69 1012.14 1012.67 1013.17
1015.56 1015.68 1016.15 1016.39 1015.45 1013.66 1011.51 1010.86 1010.45 1010.46 1010.06 1009.47 1009.52 1009.27 1008.88 1008.13 1007.59 1006.35 1005.97 1005.60 1004.93 1003.78 1002.97 1002.17 1001.93 1002.24 1002.98 1003.75 1004.48 1005.21 1005.80 1006.28 1006.91 1008.01 1008.84 1008.51 1009.87 1010.26 1010.52 1011.09 1011.25 1011.29 1011.57 1012.29
1016.49 1016.52 1016.57 1015.99 1015.14 1013.11 1012.03 1011.01 1010.47 1010.88 1011.78 1010.81 1010.35 1010.06 1009.61 1009.29 1008.85 1007.92 1007.11 1006.15 1005.36 1004.21 1003.35 1002.56 1002.09 1002.07 1002.72 1003.47 1004.14 1004.93 1005.39 1005.67 1005.85 1007.32 1007.84 1008.54 1008.85 1009.61 1009.99 1010.47 1010.74 1011.03 1011.66 1012.30
1017.32 1017.07 1016.69 1016.14 1015.16 1013.50 1012.15 1011.21 1011.56 1012.00 1011.16 1010.93 1010.48 1010.09 1009.72 1009.26 1008.83 1008.16 1007.59 1006.89 1005.93 1004.75 1003.77 1002.72 1002.38 1002.34 1002.83 1003.08 1003.71 1004.65 1004.91 1004.89 1005.44 1006.34 1007.35 1008.07 1008.41 1008.75 1009.35 1009.88 1010.65 1011.35 1011.65 1012.20
1017.23 1016.50 1016.45 1016.08 1014.31 1012.71 1012.33 1012.31 1011.78 1011.69 1011.34 1010.68 1010.41 1009.84 1009.60 1009.10 1008.77 1008.37 1007.69 1006.99 1006.29 1005.29 1004.34 1003.39 1002.56 1002.45 1002.72 1002.99 1003.22 1004.07 1004.49 1005.12 1005.61 1006.14 1006.66 1007.24 1007.69 1008.28 1008.97 1009.65 1010.41 1011.15 1011.64 1012.17
1016.47 1015.98 1016.00 1015.59 1013.78 1013.02 1012.23 1011.83 1011.71 1011.35 1011.04 1010.46 1009.87 1009.49 1009.11 1008.65 1008.40 1008.17 1007.60 1006.95 1006.21 1005.20 1004.45 1003.94 1003.08 1002.83 1002.84 1002.99 1003.34 1003.50 1004.50 1005.14 1005.64 1006.20 1006.73 1007.37 1007.99 1008.55 1008.98 1009.53 1010.16 1010.84 1011.47 1011.99
1015.90 1015.51 1014.93 1014.35 1013.64 1012.82 1011.89 1011.43 1010.92 1010.65 1010.42 1010.00 1009.30 1008.82 1008.43 1008.09 1007.92 1007.90 1007.35 1006.92 1006.27 1005.55 1004.73 1004.10 1003.55 1003.02 1002.92 1003.06 1003.85 1004.25 1004.62 1005.47 1006.08 1006.54 1007.13 1007.45 1007.84 1008.47 1009.16 1009.87 1010.35 1010.72 1010.94 1011.31
1014.61 1014.10 1014.00 1013.13 1012.82 1012.51 1011.46 1010.62 1010.43 1010.15 1009.60 1009.32 1008.80 1007.84 1007.47 1007.41 1007.42 1007.27 1006.71 1006.53 1006.20 1005.54 1005.04 1003.92 1003.38 1003.14 1002.99 1003.11 1003.68 1004.31 1004.87 1005.34 1006.01 1006.72 1007.20 1007.66 1007.99 1008.64 1009.24 1009.86 1010.78 1011.13 1011.25 1011.46
Thickness
5778 5759 5745 5756 5757 5759 5756 5747 5745 5771 5782 5773 5769 5773 5791 5785 5782 5781 5778 5775 5774 5777 5786 5783 5781 5778 5775 5769 5764 5761 5758 5755 5754 5750 5746 5745 5745 5747 5748 5752 5752 5753 5752 5750
5760 5746 5768 5771 5768 5760 5756 5748 5750 5771 5784 5773 5771 5772 5787 5788 5789 5791 5788 5780 5781 5776 5777 5778 5778 5775 5774 5771 5765 5760 5757 5754 5754 5752 5748 5748 5748 5748 5749 5752 5753 5753 5752 5751
5747 5766 5781 5772 5766 5759 5755 5749 5754 5754 5774 5779 5772 5762 5778 5792 5793 5794 5795 5792 5787 5784 5778 5777 5777 5776 5775 5770 5767 5762 5757 5754 5754 5752 5747 5746 5747 5747 5746 5749 5752 5754 5752 5750
5756 5776 5773 5769 5759 5761 5745 5771 5768 5763 5755 5734 5768 5728 5766 5782 5781 5786 5790 5788 5788 5787 5785 5782 5779 5775 5776 5773 5769 5764 5760 5754 5753 5753 5750 5747 5748 5745 5747 5749 5752 5753 5754 5753
5758 5771 5766 5762 5768 5769 5759 5779 5770 5767 5753 5751 5749 5732 5758 5772 5782 5789 5793 5793 5793 5797 5792 5786 5785 5783 5779 5775 5769 5765 5760 5755 5754 5752 5753 5750 5747 5748 5750 5750 5751 5752 5753 5754
5763 5781 5777 5774 5783 5777 5782 5769 5757 5742 5735 5718 5742 5737 5760 5770 5790 5801 5803 5801 5800 5799 5795 5792 5789 5786 5781 5778 5771 5764 5757 5755 5753 5752 5753 5754 5749 5748 5746 5746 5749 5751 5753 5755
5751 5761 5777 5786 5769 5773 5762 5735 5706 5712 5703 5709 5734 5731 5754 5793 5800 5807 5808 5805 5806 5804 5796 5791 5786 5784 5782 5778 5772 5765 5761 5756 5753 5754 5755 5755 5754 5751 5750 5749 5750 5752 5751 5753
5728 5729 5765 5779 5766 5758 5751 5738 5706 5698 5694 5711 5730 5731 5769 5804 5811 5816 5817 5813 5808 5804 5802 5797 5793 5788 5784 5779 5774 5772 5768 5758 5754 5755 5756 5756 5756 5754 5753 5752 5751 5754 5754 5755
5718 5734 5773 5777 5778 5773 5756 5732 5748 5709 5703 5708 5721 5745 5784 5808 5812 5814 5808 5808 5808 5809 5807 5802 5798 5794 5786 5780 5780 5781 5772 5765 5758 5758 5757 5758 5756 5755 5754 5754 5753 5755 5757 5757
5744 5722 5766 5780 5781 5776 5762 5758 5731 5707 5706 5705 5712 5724 5739 5783 5798 5807 5803 5801 5804 5810 5807 5804 5798 5792 5788 5786 5783 5778 5774 5768 5763 5761 5759 5761 5759 5757 5757 5755 5752 5754 5758 5758
5740 5725 5740 5765 5759 5753 5745 5737 5721 5716 5704 5694 5696 5721 5764 5779 5791 5798 5805 5805 5803 5804 5808 5806 5804 5797 5790 5784 5782 5777 5771 5767 5765 5764 5762 5761 5761 5758 5757 5756 5753 5753 5755 5757
5728 5708 5708 5737 5758 5760 5758 5743 5725 5705 5711 5694 5698 5725 5782 5782 5790 5799 5808 5810 5809 5808 5805 5806 5804 5798 5791 5786 5782 5780 5774 5771 5771 5769 5764 5763 5762 5759 5755 5756 5755 5753 5753 5754
5722 5696 5684 5708 5732 5741 5727 5735 5724 5710 5702 5694 5698 5724 5781 5785 5793 5803 5806 5811 5804 5807 5804 5801 5801 5798 5794 5789 5785 5781 5776 5774 5772 5768 5763 5761 5760 5758 5755 5755 5754 5752 5752 5753
5710 5684 5688 5679 5701 5705 5709 5721 5729 5720 5702 5702 5707 5734 5757 5773 5778 5793 5803 5809 5811 5805 5803 5801 5799 5799 5798 5792 5785 5779 5776 5775 5770 5764 5761 5760 5761 5760 5756 5755 5753 5751 5751 5750
5693 5675 5683 5688 5692 5696 5699 5709 5715 5708 5713 5704 5724 5721 5751 5762 5773 5786 5797 5803 5809 5808 5804 5800 5799 5795 5796 5791 5786 5780 5776 5772 5773 5767 5762 5759 5759 5758 5756 5753 5752 5751 5748 5748
5676 5663 5672 5672 5681 5685 5688 5703 5708 5710 5716 5710 5719 5724 5753 5760 5769 5779 5788 5798 5803 5807 5809 5807 5801 5798 5793 5794 5790 5783 5776 5776 5774 5768 5764 5760 5757 5755 5754 5753 5752 5751 5749 5750
5662 5654 5645 5646 5663 5670 5661 5690 5701 5713 5718 5721 5706 5731 5739 5746 5754 5768 5775 5783 5793 5802 5807 5808 5805 5801 5797 5793 5790 5781 5782 5777 5770 5766 5761 5760 5763 5754 5753 5752 5749 5748 5749 5748
5653 5642 5634 5632 5644 5632 5675 5692 5697 5704 5711 5711 5713 5721 5725 5731 5745 5760 5762 5770 5780 5795 5804 5807 5811 5806 5801 5795 5786 5782 5781 5778 5771 5770 5767 5760 5758 5755 5755 5753 5749 5745 5746 5743
5644 5633 5628 5624 5614 5641 5670 5670 5665 5663 5683 5695 5695 5705 5712 5723 5737 5752 5753 5761 5770 5785 5801 5806 5806 5810 5804 5796 5791 5783 5780 5777 5773 5764 5760 5754 5750 5756 5753 5759 5750 5746 5743 5740
5627 5621 5621 5603 5610 5614 5645 5653 5660 5655 5649 5676 5679 5684 5690 5702 5706 5730 5743 5753 5764 5780 5792 5802 5807 5804 5797 5792 5789 5783 5779 5777 5773 5765 5759 5755 5755 5755 5754 5750 5750 5754 5750 5743
5609 5606 5604 5599 5597 5616 5635 5644 5651 5637 5635 5651 5660 5665 5673 5677 5690 5711 5723 5738 5754 5768 5781 5794 5800 5800 5795 5790 5785 5779 5779 5778 5781 5770 5768 5763 5763 5753 5754 5753 5753 5753 5748 5744
5596 5593 5588 5585 5584 5595 5623 5630 5624 5622 5634 5640 5647 5655 5662 5671 5682 5697 5709 5722 5738 5754 5770 5785 5790 5791 5790 5789 5784 5774 5776 5784 5783 5778 5769 5762 5761 5761 5759 5756 5751 5747 5747 5742
5583 5586 5578 5581 5588 5608 5609 5608 5611 5613 5621 5629 5638 5647 5653 5662 5672 5684 5699 5712 5726 5743 5757 5771 5782 5784 5786 5788 5784 5775 5776 5776 5776 5773 5772 5768 5766 5763 5760 5754 5750 5746 5743 5739
5584 5580 5574 5575 5593 5589 5594 5598 5597 5601 5607 5620 5631 5640 5648 5657 5667 5676 5690 5703 5717 5734 5747 5758 5770 5773 5777 5780 5779 5778 5772 5770 5769 5766 5765 5764 5759 5757 5757 5755 5752 5748 5743 5739
5572 5575 5572 5569 5575 5576 5584 5584 5589 5596 5602 5611 5625 5635 5644 5653 5661 5668 5682 5695 5709 5720 5734 5747 5755 5763 5768 5772 5768 5765 5763 5759 5756 5757 5756 5758 5758 5755 5752 5749 5747 5747 5747 5744
5572 5571 5567 5572 5570 5567 5575 5578 5581 5588 5599 5606 5617 5632 5643 5649 5653 5664 5677 5690 5700 5711 5722 5738 5749 5755 5758 5761 5762 5759 5757 5752 5748 5747 5748 5749 5752 5750 5748 5745 5740 5735 5736 5734